View from above orbital plane
|
View from above satellite
|
Ground track
|
The orbit data is extracted from the following two-line orbital elements,
1 26622U 00075D 21061.76019260 -.00000663 00000-0 -57856-3 0 9992
2 26622 95.4169 207.2184 0718110 184.2387 316.7790 13.04462245965272
Epoch (UTC): | 02 March 2021 18:14:40 |
Eccentricity: | 0.0718110 |
inclination: | 95.4169° |
perigee height: | 697 km |
apogee height: | 1792 km |
right ascension of ascending node: | 207.2184° |
argument of perigee: | 184.2387° |
revolutions per day: | 13.04462245 |
mean anomaly at epoch: | 316.7790° |
orbit number at epoch: | 96527 |
The dashed part of the orbit path shows where the satellite is in the earth's shadow,
|
|